When you browse on this site, cookies collect data to enhance your experience and personalize the content and advertising you see.
Visit our Privacy Policy to learn more. By continuing to use the site, you agree to this use of cookies and data.
  • In Latvia
  • List of Countries
  • For 7 days
  • Water Temperature
  • Satellite Maps
  • Weather Map
  • Weather Widgets
  • user-avatar
    Login

    Hourly Weather Darna

    Today, 19 January, Saturday

    Time Temperature Precipitation Wind Pressure Humidity
    00:00 +11°C° 0 mm 3 mps 761 mmHg 45%
    01:00 +11°C° 0 mm 3 mps 761 mmHg 44%
    02:00 +10°C° 0 mm 3 mps 761 mmHg 45%
    03:00 +10°C° 0 mm 4 mps 761 mmHg 45%
    04:00 +10°C° 0 mm 4 mps 760 mmHg 45%
    05:00 +9°C° 0 mm 5 mps 760 mmHg 45%
    06:00 +9°C° 0 mm 5 mps 760 mmHg 45%
    07:00 +8°C° 0 mm 5 mps 760 mmHg 45%
    08:00 +8°C° 0 mm 6 mps 760 mmHg 45%
    09:00 +10°C° 0 mm 6 mps 760 mmHg 41%
    10:00 +11°C° 0 mm 6 mps 760 mmHg 37%
    11:00 +14°C° 0 mm 6 mps 760 mmHg 33%
    12:00 +14°C° 0 mm 6 mps 760 mmHg 32%
    13:00 +15°C° 0 mm 5 mps 760 mmHg 30%
    14:00 +16°C° 0 mm 5 mps 759 mmHg 28%
    15:00 +16°C° 0 mm 5 mps 759 mmHg 29%
    16:00 +16°C° 0 mm 5 mps 759 mmHg 30%
    17:00 +15°C° 0 mm 5 mps 759 mmHg 31%
    18:00 +15°C° 0 mm 5 mps 759 mmHg 33%
    19:00 +14°C° 0 mm 5 mps 758 mmHg 34%
    20:00 +14°C° 0 mm 5 mps 758 mmHg 35%
    21:00 +13°C° 0 mm 5 mps 758 mmHg 35%
    22:00 +13°C° 0 mm 5 mps 758 mmHg 36%
    23:00 +13°C° 0 mm 5 mps 758 mmHg 36%

    Tomorrow, 20 January, Sunday

    Time Temperature Precipitation Wind Pressure Humidity
    00:00 +13°C° 0 mm 6 mps 758 mmHg 36%
    01:00 +13°C° 0 mm 6 mps 758 mmHg 37%
    02:00 +13°C° 0 mm 6 mps 758 mmHg 37%
    03:00 +11°C° 0.1 mm 7 mps 758 mmHg 46%
    04:00 +10°C° 0.1 mm 8 mps 758 mmHg 56%
    05:00 +9°C° 0.1 mm 10 mps 758 mmHg 65%
    06:00 +10°C° 0.3 mm 9 mps 758 mmHg 69%
    07:00 +8°C° 0.3 mm 9 mps 758 mmHg 73%
    08:00 +8°C° 0.3 mm 9 mps 758 mmHg 78%
    09:00 +10°C° 0.4 mm 9 mps 758 mmHg 78%
    10:00 +10°C° 0.4 mm 8 mps 758 mmHg 77%
    11:00 +10°C° 0.4 mm 8 mps 758 mmHg 77%
    12:00 +12°C° 0.1 mm 8 mps 758 mmHg 69%
    13:00 +13°C° 0.1 mm 8 mps 757 mmHg 60%
    14:00 +15°C° 0.1 mm 7 mps 757 mmHg 51%
    15:00 +15°C° 0 mm 7 mps 757 mmHg 50%
    16:00 +15°C° 0 mm 6 mps 756 mmHg 49%
    17:00 +15°C° 0 mm 5 mps 756 mmHg 47%
    18:00 +15°C° 0 mm 5 mps 756 mmHg 51%
    19:00 +14°C° 0 mm 5 mps 757 mmHg 55%
    20:00 +13°C° 0 mm 5 mps 757 mmHg 59%
    21:00 +13°C° 0 mm 5 mps 757 mmHg 64%
    22:00 +13°C° 0 mm 5 mps 757 mmHg 69%
    23:00 +12°C° 0 mm 5 mps 757 mmHg 74%

    Day after tomorrow, 21 January, Monday

    Time Temperature Precipitation Wind Pressure Humidity
    00:00 +12°C° 0 mm 5 mps 758 mmHg 77%
    01:00 +12°C° 0 mm 5 mps 758 mmHg 81%
    02:00 +12°C° 0 mm 5 mps 758 mmHg 84%
    03:00 +10°C° 0 mm 5 mps 757 mmHg 84%
    04:00 +10°C° 0 mm 5 mps 757 mmHg 84%
    05:00 +10°C° 0 mm 5 mps 757 mmHg 84%
    06:00 +11°C° 0 mm 4 mps 758 mmHg 84%
    07:00 +11°C° 0 mm 4 mps 758 mmHg 84%
    08:00 +10°C° 0 mm 3 mps 758 mmHg 83%
    09:00 +12°C° 0 mm 3 mps 759 mmHg 76%
    10:00 +13°C° 0 mm 3 mps 759 mmHg 68%
    11:00 +16°C° 0 mm 3 mps 759 mmHg 61%
    12:00 +16°C° 0 mm 3 mps 759 mmHg 58%
    13:00 +17°C° 0 mm 2 mps 758 mmHg 54%
    14:00 +17°C° 0 mm 2 mps 758 mmHg 51%
    15:00 +17°C° 0 mm 3 mps 758 mmHg 53%
    16:00 +17°C° 0 mm 3 mps 758 mmHg 55%
    17:00 +16°C° 0 mm 3 mps 758 mmHg 57%
    18:00 +16°C° 0.1 mm 2 mps 758 mmHg 62%
    19:00 +15°C° 0.1 mm 2 mps 758 mmHg 66%
    20:00 +15°C° 0.1 mm 1 mps 759 mmHg 71%
    21:00 +14°C° 0.1 mm 1 mps 759 mmHg 72%
    22:00 +14°C° 0.1 mm 1 mps 759 mmHg 72%
    23:00 +13°C° 0.1 mm 1 mps 759 mmHg 73%

    22 January, Tuesday

    Time Temperature Precipitation Wind Pressure Humidity
    00:00 +13°C° 0 mm 2 mps 759 mmHg 71%
    01:00 +13°C° 0 mm 2 mps 759 mmHg 69%
    02:00 +12°C° 0 mm 3 mps 758 mmHg 67%
    03:00 +12°C° 0 mm 4 mps 758 mmHg 67%
    04:00 +11°C° 0 mm 4 mps 758 mmHg 66%
    05:00 +10°C° 0 mm 5 mps 757 mmHg 66%
    06:00 +10°C° 0 mm 6 mps 757 mmHg 67%
    07:00 +10°C° 0 mm 6 mps 758 mmHg 67%
    08:00 +10°C° 0 mm 7 mps 758 mmHg 68%
    09:00 +12°C° 0 mm 7 mps 758 mmHg 61%
    10:00 +13°C° 0 mm 8 mps 758 mmHg 53%
    11:00 +16°C° 0 mm 8 mps 758 mmHg 46%
    12:00 +17°C° 0 mm 8 mps 757 mmHg 43%
    13:00 +17°C° 0 mm 8 mps 757 mmHg 40%
    14:00 +18°C° 0 mm 7 mps 756 mmHg 36%
    15:00 +18°C° 0 mm 7 mps 756 mmHg 37%
    16:00 +18°C° 0 mm 7 mps 755 mmHg 38%
    17:00 +17°C° 0 mm 6 mps 755 mmHg 39%
    18:00 +16°C° 0 mm 6 mps 755 mmHg 42%
    19:00 +15°C° 0 mm 6 mps 755 mmHg 46%
    20:00 +14°C° 0 mm 6 mps 755 mmHg 49%
    21:00 +14°C° 0 mm 7 mps 755 mmHg 49%
    22:00 +14°C° 0 mm 7 mps 755 mmHg 48%
    23:00 +12°C° 0 mm 7 mps 754 mmHg 48%

    23 January, Wednesday

    Time Temperature Precipitation Wind Pressure Humidity
    00:00 +12°C° 0 mm 7 mps 754 mmHg 48%
    01:00 +12°C° 0 mm 8 mps 753 mmHg 47%
    02:00 +12°C° 0 mm 8 mps 753 mmHg 47%
    03:00 +12°C° 0 mm 7 mps 752 mmHg 47%
    04:00 +11°C° 0 mm 7 mps 752 mmHg 47%
    05:00 +11°C° 0 mm 7 mps 751 mmHg 47%
    06:00 +11°C° 0 mm 7 mps 751 mmHg 47%
    07:00 +11°C° 0 mm 7 mps 751 mmHg 48%
    08:00 +10°C° 0 mm 7 mps 751 mmHg 48%
    09:00 +12°C° 0 mm 8 mps 751 mmHg 44%
    10:00 +13°C° 0 mm 8 mps 751 mmHg 40%
    11:00 +15°C° 0 mm 8 mps 751 mmHg 35%
    12:00 +16°C° 0 mm 7 mps 750 mmHg 34%
    13:00 +17°C° 0 mm 5 mps 749 mmHg 33%
    14:00 +19°C° 0 mm 4 mps 749 mmHg 31%
    15:00 +19°C° 0 mm 4 mps 748 mmHg 32%
    16:00 +19°C° 0 mm 4 mps 748 mmHg 32%
    17:00 +19°C° 0 mm 4 mps 748 mmHg 32%
    18:00 +18°C° 0 mm 4 mps 748 mmHg 35%
    19:00 +15°C° 0 mm 4 mps 748 mmHg 38%
    20:00 +14°C° 0 mm 4 mps 748 mmHg 40%
    21:00 +14°C° 0 mm 4 mps 749 mmHg 50%
    22:00 +13°C° 0 mm 5 mps 749 mmHg 59%
    23:00 +13°C° 0 mm 6 mps 749 mmHg 68%

    24 January, Thursday

    Time Temperature Precipitation Wind Pressure Humidity
    00:00 +11°C° 0 mm 6 mps 749 mmHg 72%
    01:00 +11°C° 0 mm 7 mps 749 mmHg 75%
    02:00 +10°C° 0 mm 7 mps 749 mmHg 78%
    03:00 +10°C° 0 mm 7 mps 749 mmHg 79%
    04:00 +10°C° 0 mm 7 mps 749 mmHg 79%
    05:00 +10°C° 0 mm 7 mps 749 mmHg 79%
    06:00 +10°C° 0 mm 8 mps 749 mmHg 80%
    07:00 +8°C° 0 mm 9 mps 749 mmHg 80%
    08:00 +8°C° 0 mm 10 mps 749 mmHg 81%
    09:00 +11°C° 0 mm 11 mps 750 mmHg 68%
    10:00 +13°C° 0 mm 11 mps 750 mmHg 55%
    11:00 +15°C° 0 mm 12 mps 751 mmHg 42%
    12:00 +16°C° 0 mm 11 mps 751 mmHg 40%
    13:00 +17°C° 0 mm 11 mps 751 mmHg 39%
    14:00 +17°C° 0 mm 10 mps 751 mmHg 38%
    15:00 +17°C° 0 mm 9 mps 751 mmHg 38%
    16:00 +17°C° 0 mm 8 mps 751 mmHg 39%
    17:00 +16°C° 0 mm 6 mps 751 mmHg 40%
    18:00 +15°C° 0 mm 7 mps 752 mmHg 42%
    19:00 +14°C° 0 mm 7 mps 752 mmHg 45%
    20:00 +12°C° 0 mm 7 mps 753 mmHg 48%
    21:00 +12°C° 0 mm 7 mps 753 mmHg 49%
    22:00 +11°C° 0 mm 7 mps 753 mmHg 50%
    23:00 +11°C° 0 mm 7 mps 753 mmHg 51%
    Show more